www.pogodaiklimat.ru

Погода и климат >> Архив погоды >> Индонезия >> Купанг


ПОГОДА в Купанге

  • Прогноз погоды в Купанге
  • Монитор погоды в Купанге

АРХИВ ПОГОДЫ в Купанге

Время (UTC), дата Ветер
(напр.,м/с)
 
Видим.   Явления Облачность Т
(С)
Тd
(С)
f
(%)
Тe
(С)
Тes
(С)
Комфортность P
(гПа)
Po
(гПа)
Тmin
(С)
Tmax
(С)
R
(мм)
R24
(мм)
S
(см)
21 14.03 штиль 0 8000 м 6/4 480 м
[Cu Sc Ac As Ci fib]
+24.4 +23.6 95 +33 +33 очень
душно
1009.2 997.0
00 15.03 ЮВ 1 10 км 9/1 500 м
[Cu hum Ac As Ci fib]
+25.6 +24.5 94 +36 +40 очень
душно
1011.6 999.4 +24.0 1
03 15.03 СЗ 2 10 км 9/3 500 м
[Cu hum Ac As Ci fib]
+30.6 +26.5 79 +47 +55 опасность
перегрева
1010.0 997.9
06 15.03 СЗ 5 10 км 9/5 500 м
[Cu med, cong Ac As Ci fib]
+29.4 +26.2 83 +45 +47 опасность
перегрева
1007.7 995.6
09 15.03 З 3 5000 м гроза, ливневой дождь 9/8 420 м
[Cb cap Ac As Ci fib]
+27.0 +25.4 91 +39 +40 очень
душно
1008.9 996.8 0.0
12 15.03 В 2 8000 м в посл. час дождь {гроза} 9/9 450 м
[Cb cap Ac As Cs]
+25.4 +24.7 96 +36 +36 очень
душно
1010.4 998.2 +30.8 7
15 15.03 Ю 1 8000 м 9/9 450 м
[Cb cap Ac As Cs]
+24.8 +24.3 97 +34 +34 очень
душно
1010.3 998.2
18 15.03 З 1 8000 м 9/9 450 м
[Cb cap Ac As Cs]
+24.9 +23.7 93 +34 +34 очень
душно
1008.1 996.0
21 15.03 Ю 1 8000 м 9/9 450 м
[Cb cap Ac As Ci sp]
+25.2 +24.9 98 +36 +36 очень
душно
1008.8 996.6
00 16.03 штиль 0 10 км в посл. час дождь 9/3 480 м
[Cu Sc Ac As Ci fib]
+25.8 +24.6 93 +36 +40 очень
душно
1010.7 998.6 +24.2 0.0
03 16.03 З 3 10 км слаб. дождь 10/8 450 м
[Cb cap Ac As]
+28.9 +26.1 85 +44 +45 опасность
перегрева
1010.8 998.7 0.0
06 16.03 З 4 2000 м слаб. дождь 10/9 450 м
[Cb cap As op]
+26.6 +25.5 94 +39 +39 очень
душно
1008.4 996.3 3
09 16.03 В 2 10 км {дождь} 10/8 450 м
[Cu med, cong As op]
+26.8 +25.7 94 +40 +40 очень
душно
1008.4 996.3 2
12 16.03 штиль 0 8000 м {дождь} 8/6 450 м
[Cu med, cong As trans Ci fib]
+25.4 +24.6 95 +36 +36 очень
душно
1011.0 998.8 +29.8 2
15 16.03 ЮЗ 2 5000 м гроза, ливневой дождь 8/8 450 м
[Cb cap Ac As Ci fib]
+24.6 +24.0 96 +34 +34 очень
душно
1011.5 999.3 6
18 16.03 штиль 0 8000 м {гроза, дождь} 8/6 450 м
[Cu med, cong Ac As Ci fib]
+24.4 +23.3 94 +33 +33 очень
душно
1009.8 997.6 6
21 16.03 З 1 5000 м слаб. дождь 8/6 450 м
[Cu med, cong Ac As Ci fib]
+24.6 +24.0 96 +34 +34 очень
душно
1009.2 997.1 4
00 17.03 СЗ 2 10 км {дождь} 9/6 450 м
[Cu Sc Ac As Ci sp]
+26.4 +25.3 94 +38 +40 очень
душно
1010.9 998.7 +24.4 1
03 17.03 СЗ 3 8000 м {дождь} 8/6 450 м
[Cu Sc Ac As Ci sp]
+28.8 +25.3 81 +42 +47 опасность
перегрева
1010.7 998.6 7
06 17.03 СЗ 4 8000 м слаб. дождь 9/5 420 м
[Cu med, cong Ac As Ci sp]
+27.6 +25.3 87 +40 +43 очень
душно
1008.5 996.4 0.0
09 17.03 СЗ 3 6000 м слаб. дождь 10/6 400 м
[Cu med, cong As op]
+25.8 +24.6 93 +36 +36 очень
душно
1008.7 996.6 2
12 17.03 СЗ 4 5000 м слаб. дождь 10/6 450 м
[Cu med, cong As op]
+25.4 +25.1 98 +36 +36 очень
душно
1010.3 998.1 +29.2 7
15 17.03 СЗ 3 7000 м слаб. дождь 10/8 420 м
[Cu med, cong As op]
+25.0 +24.7 98 +35 +35 очень
душно
1011.2 999.0 2
18 17.03 З 6 8000 м в посл. час дождь 10/6 450 м
[Cu med, cong As op]
+25.8 +25.0 95 +37 +37 очень
душно
1009.5 997.4 0.6
21 17.03 СЗ 4 8000 м {дождь} 9/6 480 м
[Cu hum Ac trans Ci sp]
+26.2 +24.6 91 +37 +37 очень
душно
1009.0 996.9 1
00 18.03 С 2 6000 м слаб. дождь 9/6 450 м
[Cu med, cong As op Ci fib]
+26.7 +25.6 94 +39 +41 очень
душно
1010.6 998.4 +24.8 0.8
03 18.03 СЗ 5 10 км {дождь} 8/4 500 м
[Cu med, cong Ac As Ci fib]
+30.3 +25.8 77 +45 +49 опасность
перегрева
1010.2 998.0 0.0
06 18.03 СЗ 5 10 км {дождь} 8/5 500 м
[Cu med, cong Ac trans Ci fib]
+30.0 +25.4 76 +44 +46 опасность
перегрева
1007.8 995.6 0.0
09 18.03 СЗ 5 10 км 8/4 500 м
[Cu med, cong Ac trans Ci fib]
+29.0 +25.5 81 +43 +43 опасность
перегрева
1007.2 995.1
12 18.03 СЗ 2 8000 м 9/5 480 м
[Cu Sc Ac As Cs]
+27.0 +24.5 86 +38 +38 очень
душно
1009.4 977.3 +30.4
15 18.03 СЗ 3 8000 м 9/4 480 м
[Cu Sc Ac lent Ci fib]
+26.4 +24.8 91 +38 +38 очень
душно
1010.3 998.1
18 18.03 С 3 8000 м 9/6 480 м
[Cu Sc Ac trans Ci fib]
+26.4 +24.5 89 +37 +37 очень
душно
1008.3 996.2
21 18.03 СЗ 4 8000 м 9/6 480 м
[Cu Sc Ac trans Ci fib]
+26.2 +24.6 91 +37 +37 очень
душно
1008.5 996.3
00 19.03 С 3 10 км 8/4 480 м
[Cu Sc Ac trans Cs]
+27.8 +24.7 83 +39 +42 очень
душно
1010.3 998.1 +25.8 0.0
03 19.03 СЗ 4 10 км 8/4 480 м
[Cu hum Ac trans Ci sp]
+30.6 +25.9 76 +46 +51 опасность
перегрева
1009.6 997.4
06 19.03 СЗ 4 10 км 6/3 480 м
[Cu hum Ac trans Ci sp]
+31.1 +25.3 71 +45 +50 опасность
перегрева
1007.0 994.9
09 19.03 С 3 10 км 6/3 480 м
[Cu hum Ac trans Ci sp]
+29.8 +25.5 78 +44 +44 опасность
перегрева
1006.8 994.7
12 19.03 С 2 8000 м 5/3 480 м
[Cu hum Ac As Ci fib]
+27.4 +25.0 87 +39 +39 очень
душно
1009.4 997.2 +31.4
15 19.03 штиль 0 8000 м 5/3 480 м
[Cu hum Ac As Ci fib]
+25.8 +24.4 92 +36 +36 очень
душно
1010.1 997.9
18 19.03 штиль 0 8000 м 5/3 480 м
[Cu hum Ac As Ci fib]
+25.6 +24.2 92 +35 +35 очень
душно
1008.2 996.0
21 19.03 штиль 0 8000 м 4/3 480 м
[Cu hum Ac trans Ci fib]
+25.4 +24.6 95 +36 +36 очень
душно
1008.8 996.6
00 20.03 СЗ 4 10 км 9/3 540 м
[Cu hum Ac trans Cs]
+27.6 +24.6 84 +39 +41 очень
душно
1010.6 998.4 +25.4
03 20.03 СЗ 7 10 км 8/3 540 м
[Cu hum Ac trans Ci sp]
+31.4 +25.8 72 +46 +49 опасность
перегрева
1010.1 998.0
06 20.03 СЗ 6 10 км 5/3 540 м
[Cu med, cong As trans Ci fib]
+32.2 +25.8 69 +47 +51 опасность
перегрева
1008.2 996.1
09 20.03 С 3 10 км 5/3 540 м
[Cu med, cong As trans Ci fib]
+31.2 +25.9 73 +46 +47 опасность
перегрева
1008.2 996.1
12 20.03 штиль 0 8000 м 3/1 600 м
[Cu hum Ci fib]
+27.8 +25.4 87 +41 +41 опасность
перегрева
1010.4 998.2 +33.0
15 20.03 З 1 8000 м 1/1 600 м
[Cu hum Ci fib]
+26.4 +24.8 91 +38 +38 очень
душно
1011.3 999.1
18 20.03 ЮЗ 1 8000 м 6/1 600 м
[Cu hum Ci sp]
+25.3 +23.5 90 +34 +34 очень
душно
1009.4 997.3
21 20.03 ЮЗ 1 8000 м 4/1 600 м
[Cu hum Ci sp]
+24.8 +23.1 90 +33 +33 очень
душно
1009.5 997.3
00 21.03 СЗ 2 10 км 4/1 600 м
[Cu med, cong Ci fib]
+27.0 +24.3 85 +38 +43 очень
душно
1010.7 998.5 +24.0
03 21.03 СЗ 4 10 км 4/1 570 м
[Cu med, cong Ci fib]
+31.4 +25.8 72 +46 +58 опасность
перегрева
1010.5 998.3
06 21.03 СЗ 5 10 км 4/1 570 м
[Cu hum Ac trans Ci fib]
+32.3 +26.1 70 +48 +55 опасность
перегрева
1008.3 996.1
09 21.03 СЗ 4 10 км 6/1 570 м
[Cu hum Ac trans Ci fib]
+30.8 +25.7 74 +45 +46 опасность
перегрева
1008.2 996.1
12 21.03 СЗ 2 8000 м 5/1 600 м
[Cu hum Ac trans Ci fib]
+27.5 +24.6 84 +39 +39 очень
душно
1009.7 997.5 +32.3
15 21.03 СЗ 2 8000 м 5/1 600 м
[Cu hum Ci fib]
+26.6 +24.4 88 +37 +37 очень
душно
1011.6 999.4
18 21.03 СЗ 2 8000 м 5/1 600 м
[Cu hum Ci fib]
+26.0 +24.2 90 +36 +36 очень
душно
1010.1 997.9

 

Местоположение метеостанции Купанг (Индонезия): широта -10.16 долгота 123.66 высота над уровнем моря 108 м.

В архиве по умолчанию представлена погода в Купанге за последнюю неделю. Архивные данные за месяц целиком и за предыдущие месяцы, начиная с января 2011 года, Вы можете получить, выбрав интересующий диапазон дат из раскрывающегося списка и нажав кнопку "Ввод!".


*Определитесь, кто Вы:
робот инопланетянин человек

Внимание! Время в таблицах - всемирное. Для получения местного времени необходимо прибавить поправку, которая равна 8 ч.

Смотрите также архив погоды в соседних городах и на ближайших метеорологических станциях:

Погода на Роти (Индонезия) (90 км)
Погода в Сабу (Индонезия) (204 км)
Погода в Ларантуке (Индонезия) (223 км)
Погода в Маумере (Индонезия) (230 км)
Погода на Алоре (Индонезия) (237 км)
Погода в Аэропорту Умбу Механг Кунда (Индонезия) (369 км)
Погода в Рутенге (Индонезия) (391 км)
Погода на Острове Брауз (Западная Австралия, Австралия) (440 км)
Погода на Острове Троутон (Западная Австралия, Австралия) (483 км)
Погода в Трускотте (Западная Австралия, Австралия) (527 км)

Пояснения к столбцам:

Ветер - указаны скорость ветра в м/с - средняя за 10 мин, порывы в срок и между сроками (в фигурных скобках) и направление, откуда дует ветер: С - северный, СВ - северо-восточный, В - восточный, ЮВ - юго-восточный, Ю - южный, ЮЗ - юго-западный, З - западный, СЗ - северо-западный.
Видимость - горизонтальная дальность видимости в метрах или километрах. При видимости от 1 до 10 км при отсутствии осадков обычно наблюдается дымка, при ухудшении видимости до 1 км и менее - туман. В сухую погоду видимость может ухудшаться дымом, пылью или мглою.
Явления - указаны атмосферные явления, наблюдавшиеся в срок или в последний час перед сроком; фигурными скобками обозначены явления, наблюдавшиеся между сроками (за 1-3 часа до срока); квадратными скобками обозначены град или гололедные отложения с указанием их диаметра в мм.
Облачность - указаны через наклонную черту общая и нижняя облачность в баллах и высота нижней границы облаков в метрах; квадратными скобками обозначены формы облаков: Ci - перистые, Cs - перисто-слоистые, Cc - перисто-кучевые, Ac - высококучевые, As - высокослоистые, Sc - слоисто-кучевые, Ns - слоисто-дождевые, Cu - кучевые, Cb - кучево-дождевые. Подробнее классификацию облаков см. в Атласе облаков (PDF).
T - Температура воздуха - температура, измеренная на высоте 2 м над землей.
Td - Температура точки росы - температура, при понижении до которой содержащийся в воздухе водяной пар достигнет насыщения.
f - Относительная влажность воздуха - влажноcть воздуха, измеренная на высоте 2 м над землей.
Te - Эффективная температура - температура, которую ощущает одетый по сезону человек в тени. Характеристика душности погоды. При расчете учитывается влияние влажности воздуха и скорости ветра на теплоощущения человека.
Tes - Эффективная температура на солнце - температура, которую ощущает человек, с поправкой на солнечный нагрев. Характеристика знойности погоды. Зависит от высоты солнца над горизонтом, облачности и скорости ветра. Ночью, в пасмурную погоду, а также при ветре 12 м/с и более поправка равна нулю.
P - Атмосферное давление - приведенное к уровню моря атмосферное давление.
Po - Атмосферное давление - измеренное на уровне метеостанции атмосферное давление.
Tmin - Минимальная температура - минимум температуры воздуха на высоте 2 м над землей.
Tmax - Максимальная температура - максимум температуры воздуха на высоте 2 м над землей.
R - Количество осадков - Количество выпавших осадков за период времени, мм. При наведении курсора мыши на число - период времени, за который выпало указанное количество осадков.
R24 - Количество осадков - Количество выпавших осадков за 24 часа, мм.
S - Снежный покров - Высота снежного покрова, см. При наведении курсора мыши на число - состояние снежного покрова и степень покрытия местности в баллах.